ROMMA est une association bénévole à but non lucratif. Votre soutien est indispensable : ADHERER à ROMMA ou FAIRE un DON

Crest - (26, Drôme)

Vallée de la Drôme (315 m)   Longitude: 5°2' E   Latitude: 44°44' N Station partenaire n°62
 

Détail journalier du     <<     >>

Température Precipitation Humidité Pression Vent Dir Rafale Dir. rafale Ensol.
Heure (°C) (mm) (%) (hPa) (km/h) (km/h) (min)
01:00 20.408310144SE16SSE0
02:00 19.108310142SE13ESE0
03:00 17.508510141ESE5ESE0
04:00 16.7082101306SSE0
05:00 16.9078101303SSE0
06:00 16.407210131SSE6SSE0
07:00 15.708010131SSE5SSE0
08:00 16.907210131SE8SE0
09:00 19.507010132SE10SE26
10:00 22.107110137SE24SE56
11:00 24.305910139SE24SE60
12:00 26.1048101311SE34SE60
13:00 28.2040101313SE39SE60
14:00 28.6039101312SE42SE60
15:00 29.7035101212SE34ESE60
16:00 30.2035101211SE34ESE60
17:00 30.1035101111SE34ESE60
18:00 29.3039101110SE31SE60
19:00 28.203810118SE26SE59
20:00 26.504510126SE26SE7
21:00 25.105010128SE26ESE0
22:00 23.9055101410SE29SE0
23:00 22.705710148ESE23ESE0
minuit 22.105110155SE19SE0

Graphique du 18-08-2019

 

Serveur OMMA